Overview Statistics Trail Chart Weather Telemetry Raw packets
 

This is the latest recevied weather packets stored in our database for station/object EA4HRG-10. If no packets are shown the sender has not sent any weather packets the latest 10 day(s).

<< 5 6 7 8 9 10 11 >>
Time Temp. Humidity Pressure Rain* Wind** Luminosity Snow
1788469839 20° C 33% 1022.3 hPa - - - -
1788468939 20.56° C 31% 1022.2 hPa - - - -
1788468040 21.67° C 29% 1021.7 hPa - - - -
1788467139 22.22° C 28% 1021.4 hPa - - - -
1788466239 22.78° C 28% 1020.9 hPa - - - -
1788465339 23.89° C 26% 1020.5 hPa - - - -
1788464439 25° C 24% 1019.8 hPa - - - -
1788463539 26.11° C 23% 1019.1 hPa - - - -
1788462639 27.78° C 21% 1018.5 hPa - - - -
1788461739 - 100% - - - - -
1788460839 - 100% - - - - -
1788459939 - 100% - - - - -
1788459039 36.11° C 13% 1015.4 hPa - - - -
1788458139 37.22° C 13% 1014.8 hPa - - - -
1788457239 38.89° C 12% 1014.3 hPa - - - -
1788456339 40.56° C 11% 1013.8 hPa - - - -
1788455439 40.56° C 10% 1013.6 hPa - - - -
1788454539 40.56° C 9% 1013.7 hPa - - - -
1788453639 41.67° C 8% 1013.2 hPa - - - -
1788452739 42.78° C 7% 1013 hPa - - - -
1788451839 43.33° C 8% 1012.7 hPa - - - -
1788450939 43.89° C 8% 1012.6 hPa - - - -
1788450039 44.44° C 8% 1012.5 hPa - - - -
1788449139 43.89° C 9% 1012.7 hPa - - - -
1788448239 42.78° C 10% 1013 hPa - - - -

* Rain since midnight (hover to see other rain measurements)
** Current wind speed in m/s (hover to see current wind gust speed)